User: anonymous   Login
Location: Unspecified
(0.0000°N, 0.0000°E)
Time: 19:51:12
(UTC+00:00)
Language:

ATEX - Orbit

View from above orbital plane
View from above orbital plane
View from above satellite
View from above satellite

Ground track
Ground track

The orbit data is extracted from the following two-line orbital elements,

1 25615U 98055C   20047.20069571 +.00000104 +00000-0 +23831-4 0  9995
2 25615 084.9857 297.9840 0007679 178.8155 181.3064 14.45090614039824
Epoch (UTC): 16 February 2020 04:49:00
Eccentricity: 0.0007679
inclination: 84.9857°
perigee height: 736 km
apogee height: 747 km
right ascension of ascending node: 297.9840°
argument of perigee: 178.8155°
revolutions per day: 14.45090614
mean anomaly at epoch: 181.3064°
orbit number at epoch: 3982

The dashed part of the orbit path shows where the satellite is in the earth's shadow,  

DLR